Terminal Aerodrome Forecast
Issued by NWS Upton, NY

Home | Current Version | Previous Version | Text Only | Print | Product List | Glossary On
Versions: 1 2 3 4 5 6 7 8 9 10 11 12 13 14 15 16 17 18 19 20 21 22 23 24 25 26 27 28 29 30 31 32 33 34
000
FTUS41 KOKX 191247 AAB
TAFISP
TAF AMD
KISP 191247Z 1913/2012 22018G28KT 6SM -SHRA BR SCT010 BKN020 OVC035
     FM191400 25023G38KT P6SM SCT020 BKN040
     FM191700 29021G39KT P6SM SCT040
     FM192200 29017G31KT P6SM SCT040
     FM200300 29015G26KT P6SM FEW040=

USA.gov is the U.S. government's official web portal to all federal, state and local government web resources and services.